Regional Weather Roundup
Issued by NWS

Home | Current Version | Previous Version | Text Only | Print | Product List | Glossary Off
Versions: 1 2 3 4 5 6 7 8 9 10 11 12 13 14 15 16 17 18 19 20 21 22 23 24 25 26 27 28 29 30 31 32 33 34 35 36 37 38 39 40 41 42 43 44 45 46 47 48 49 50

000
ASUS45 KCYS 042010
RWRWY

WYOMING REGIONAL WEATHER ROUNDUP
NATIONAL WEATHER SERVICE CHEYENNE WY
200 PM MDT TUE AUG 04 2015

NOTE:  "FAIR" INDICATES FEW OR NO CLOUDS BELOW 12,000 FEET
WITH NO SIGNIFICANT WEATHER AND/OR OBSTRUCTIONS TO VISIBILITY.

WYZ001-042100-
YELLOWSTONE NATIONAL PARK

CITY           SKY/WX    TMP DP  RH WIND       PRES   REMARKS
LK YELLOWSTONE   N/A     62  49  62 CALM      30.27F
W YELLOWSTONE  NOT AVBL

$$
WYZ002>013-054>058-071-098>099-042100-
NORTHERN WYOMING

CITY           SKY/WX    TMP DP  RH WIND       PRES   REMARKS
JACKSON        MOSUNNY   73  46  38 SW5       30.20S
CODY           CLOUDY    66  55  68 N10G17    30.10F
GREYBULL       LGT RAIN  75  55  49 NW21G26   30.04R
WORLAND        PTSUNNY   78  49  35 N15       30.03R
SHERIDAN       PTSUNNY   73  53  49 NW20      30.01R
BUFFALO        CLOUDY    73  51  46 NW20      30.05R
GILLETTE       FAIR      83  52  34 S12G17    29.97F
HULETT         FAIR      79  57  47 SE9       30.01R THUNDER
NEWCASTLE      FAIR      81  54  39 SE9       29.99F

$$
WYZ014>020-022>026-101>103-042100-
CENTRAL WYOMING

CITY           SKY/WX    TMP DP  RH WIND       PRES   REMARKS
BIG PINEY      FAIR      75  41  29 W17G25    30.25S
PINEDALE       FAIR      72  41  33 NW14      30.26S
DUBOIS         FAIR      70  41  35 N12G20    30.21S
LANDER         FAIR      80  47  31 NW10G23   30.09S
RIVERTON       PTSUNNY   79  49  34 NE15      30.10R
CASPER         FAIR      77  51  40 W15       30.05S THUNDER
DOUGLAS        PTSUNNY   81  51  35 W10G18    30.04S

$$
WYZ021-027>030-104>119-042100-
SOUTHERN WYOMING

CITY           SKY/WX    TMP DP  RH WIND       PRES   REMARKS
EVANSTON       FAIR      75  41  29 W9        30.28F
KEMMERER       FAIR      73  39  29 W14G20    30.30S
FORT BRIDGER   CLEAR     77  41  27 W7G16     30.30S
ROCK SPRINGS   FAIR      77  45  32 W22G28    30.23S
DIXON          FAIR      79  44  29 W15G24    30.25S
RAWLINS        FAIR      74  47  38 W20       30.19S
SARATOGA       MOCLDY    73  45  35 W21G33    30.23S
LARAMIE        CLOUDY    68  46  45 W22G35    30.19F
CHEYENNE       FAIR      74  47  38 W22G36    30.12S
TORRINGTON     FAIR      81  52  36 W7        29.97S
PINE BLUFFS    MOCLDY    77  46  33 NW15G22   30.07S

$$


USA.gov is the U.S. government's official web portal to all federal, state and local government web resources and services.